Flag for U.S.A. Weather past 2 weeks in Oceanside, California, U.S.A.

Now
66 °F

Passing clouds.


Feels Like: 66 °F
Forecast: 63 / 73 °F
Wind: No wind

Location: Oceanside Weather Reporting Station

Current Time: Oct 19, 2014 at 10:21:46 PM

Latest Report: Oct 19, 2014 at 7:52 PM


Visibility: 10 mi

Pressure: 29.86 "Hg

Humidity: 81%

Dew point: 60 °F

Location of OceansideLocation

Historic Weather in Oceanside — Graph

°F

Oceanside temperature yesterday

Maximum temperature yesterday: 75 °F (at 11:52 AM)
Minimum temperature yesterday: 57 °F (at 6:52 AM)
Average temperature yesterday: 67 °F

Past Weeks' High & Low Weather Summary

 TemperatureHumidityPressure
High88 °F (Oct 5, 12:52 PM)94% (Oct 12, 4:52 AM)30.02 "Hg (Oct 12, 4:52 AM)
Low51 °F (Oct 5, 6:52 AM)14% (Oct 6, 10:52 AM)29.80 "Hg (Oct 8, 4:52 PM)
Average68 °F70%29.91 "Hg
* Reported Oct 4 7:52 PM — Oct 19 7:52 PM, Oceanside, Weather by CustomWeather, © 2014

Note: Actual official high and low records may vary slightly from our data, if they occured in-between our weather recording intervals... More about our weather records

Advertising

Oceanside weather history for previous 24 hours

 ConditionsComfort  
Time TempWeatherWind HumidityBarometerVisibility
7:52 PM
Oct 19
66 °FPassing clouds.No wind81%29.86 "Hg10 mi
6:52 PM69 °FSunny.No wind79%29.85 "Hg10 mi
5:52 PM70 °FSunny.6 mph73%29.83 "Hg10 mi
4:52 PM72 °FSunny.8 mph68%29.83 "Hg10 mi
3:52 PM73 °FScattered clouds.7 mph66%29.84 "Hg10 mi
3:00 PM73 °FPartly sunny.9 mph64%29.85 "Hg10 mi
1:52 PM74 °FSunny.10 mph64%29.86 "Hg10 mi
12:52 PM74 °FSunny.10 mph62%29.87 "Hg10 mi
11:52 AM74 °FSunny.10 mph62%29.89 "Hg10 mi
10:52 AM73 °FSunny.N/A57%29.90 "Hg10 mi
9:52 AM71 °FSunny.3 mph66%29.91 "Hg10 mi
8:52 AM65 °FSunny.3 mph70%29.92 "Hg10 mi
7:52 AM59 °FClear.3 mph84%29.90 "Hg10 mi
6:52 AM56 °FClear.3 mph90%29.88 "Hg10 mi
5:52 AM56 °FClear.No wind87%29.87 "Hg10 mi
4:52 AM56 °FClear.No wind90%29.85 "Hg10 mi
3:52 AM56 °FClear.No wind90%29.85 "Hg10 mi
2:52 AM59 °FClear.3 mph87%29.86 "Hg10 mi
1:52 AM57 °FClear.No wind87%29.87 "Hg10 mi
12:52 AM58 °FClear.No wind84%29.87 "Hg10 mi
11:52 PM
Oct 18
58 °FClear.No wind87%29.87 "Hg10 mi
10:52 PM60 °FClear.No wind80%29.87 "Hg10 mi
Weather by CustomWeather, © 2014

See weather overviewHow to use our weather pages